Observations for Trim Patrick St
| Time | AQI | Temp °C | Hum % | Pres Pa | CO μg/m³ | H₂S μg/m³ | NO μg/m³ | NO₂ μg/m³ | O₃ μg/m³ | SO₂ μg/m³ | PM1 μg/m³ | PM2.5 μg/m³ | PM10 μg/m³ |
|---|---|---|---|---|---|---|---|---|---|---|---|---|---|
| Tuesday 4 August 2026 | |||||||||||||
| 07:53 | 1 | 20.1 | 85 | 38,455 | 0.09 | 0.37 | 2.45 | 5.56 | 23.38 | 3.65 | 2 | 4.21 | 4.63 |
| 07:52 | 1 | 20.1 | 85 | 38,454 | 0.09 | 0 | 2.45 | 7.25 | 25.7 | 4.22 | 2 | 4.22 | 4.65 |
| 07:51 | 1 | 20.1 | 85 | 38,452 | 0.07 | 0 | 2.49 | 4.81 | 24.8 | 3.94 | 2 | 4.91 | 5.4 |
| 07:50 | 1 | 20 | 85 | 38,449 | 0.07 | 0 | 2.4 | 0 | 13.08 | 4.06 | 2 | 4.22 | 4.64 |
| 07:49 | 1 | 20 | 85 | 38,445 | 0.09 | 0 | 2.47 | 5.21 | 22.4 | 3.14 | 2 | 4.91 | 5.4 |
| 07:48 | 1 | 20 | 85 | 38,440 | 0.09 | 0 | 2.53 | 11.05 | 29.3 | 3.1 | 2 | 4.21 | 4.63 |
| 07:47 | 1 | 20 | 85 | 38,433 | 0.1 | 0 | 2.47 | 0 | 18.43 | 3.95 | 2 | 4.89 | 5.38 |
| 07:46 | 1 | 20 | 85 | 38,424 | 0.11 | 0.58 | 2.45 | 7.94 | 31.01 | 3.5 | 2.86 | 4.88 | 5.36 |
| 07:45 | 1 | 20 | 85 | 38,411 | 0.12 | 0 | 2.5 | 11.14 | 18.11 | 3.57 | 2 | 4.88 | 5.36 |
| 07:44 | 1 | 20 | 86 | 38,395 | 0.11 | 0 | 2.49 | 2.25 | 20.46 | 3.94 | 2 | 4.17 | 4.59 |
| 07:43 | 1 | 19.9 | 86 | 38,374 | 0.13 | 0 | 2.42 | 11.7 | 16.12 | 3.61 | 2 | 4.17 | 4.59 |
| 07:42 | 1 | 19.9 | 86 | 38,374 | 0.12 | 0 | 2.49 | 0 | 16.22 | 4.43 | 2.86 | 4.86 | 5.34 |
| 07:41 | 1 | 19.9 | 86 | 38,374 | 0.12 | 0.27 | 2.46 | 12.35 | 27.14 | 2.87 | 2 | 4.85 | 5.33 |
| 07:40 | 1 | 19.9 | 86 | 38,373 | 0.14 | 0 | 2.47 | 12.2 | 16.68 | 3.53 | 2.86 | 5.52 | 6.08 |
| 07:39 | 1 | 19.9 | 86 | 38,373 | 0.14 | 0 | 2.42 | 11.43 | 15.34 | 3.35 | 2 | 4.15 | 4.56 |
| 07:38 | 1 | 19.9 | 86 | 38,373 | 0.14 | 0.43 | 2.48 | 14.15 | 22.16 | 3.73 | 2.86 | 5.51 | 6.06 |
| 07:37 | 1 | 19.9 | 86 | 38,373 | 0.13 | 0 | 2.46 | 5.43 | 20.13 | 3.42 | 2 | 4.12 | 4.54 |
| 07:36 | 1 | 19.8 | 86 | 38,373 | 0.15 | 0.82 | 2.47 | 8.57 | 22.3 | 3.06 | 3.71 | 6.18 | 6.8 |
| 07:35 | 1 | 19.8 | 87 | 38,373 | 0.16 | 1.22 | 2.5 | 7.55 | 19.36 | 2.67 | 2.86 | 5.48 | 6.02 |
| 07:34 | 1 | 19.8 | 87 | 38,373 | 0.19 | 0.01 | 2.57 | 13.01 | 27.14 | 3.44 | 3.71 | 6.15 | 6.76 |